LFBULFBH

Guest
Details From LFBU - Angouleme Brie Champniers
To LFBH - La Rochelle Laleu
Flight Number -
Tags generated
Created
Modified
Stats Distance 65 nm / 121 km
Max Altitude 3,200 ft / 975 m
Waypoints 3
Social Downloads 0
Likes 0
Share VATSIM

Download

Looking for another format? Having issues loading an existing format? Contact us
Advertisement - Login to hide

Notes

Basic altitude profile: - Ascent Rate: 2500ft/min - Ascent Speed: 250kts - Cruise Altitude: 35000ft - Cruise Speed: 420kts - Descent Rate: 1500ft/min - Descent Speed: 250kts Options: - Use NATs: yes - Use PACOTS: yes - Use low airways: yes - Use high airways: yes

Route

LFBU ADILU LFBH

ID Type Via Altitude Latitude Longitude Leg Dist Tot Dist Heading (true) Name
O LFBU APT - 0 ft / 0 m 45.72951˚ 0.21867˚ - 0 nm - Angouleme Brie Champniers
ADILU FIX - 3,200 ft / 975 m 46.12417˚ -0.83944˚ 50 nm 50 nm 299° / 298° -
O LFBH APT - 0 ft / 0 m 46.17924˚ -1.19641˚ 15 nm 65 nm 283° / 282° La Rochelle Laleu

Altitude Profile

Advertisement - Login to hide

LFBU

Details ICAO LFBU (ANG)
Name Angouleme Brie Champniers
Region France
Timezone Europe/Paris (UTC+2.0)
Stats Elevation 436 ft / 133 m (AMSL)
Location 45.729515° 0.218672°
Runways 1
Magnetic Variation 0.208° E

METAR

LFBU 241600Z AUTO VRB02KT CAVOK 24/14 Q1015 TEMPO 1200 -TSRA BKN050CB

Decode

TAF

TAF AMD LFBU 241242Z 2412/2512 14010KT CAVOK TEMPO 2412/2418 4500 SHRA SCT020 BKN060TCU PROB30 TEMPO 2412/2418 1200 -TSRA BKN050CB BECMG 2416/2418 VRB03KT BECMG 2504/2506 06008KT

Decode

Departure Runways

ID Width Length Bearing (true) Bearing (mag) Surface Threshold Offset Overrun Length
10 148 ft / 45 m 5,923 ft / 1,805 m 96.94° 96.73° Asphalt 0 ft / 0 m 1,805 ft / 550 m
28 148 ft / 45 m 5,923 ft / 1,805 m 276.96° 276.75° Asphalt 0 ft / 0 m 1,375 ft / 419 m

LFBH

Details ICAO LFBH (LRH)
Name La Rochelle Laleu
Region France
Timezone Europe/Paris (UTC+2.0)
Stats Elevation 74 ft / 23 m (AMSL)
Location 46.179245° -1.196410°
Runways 1
Magnetic Variation 0.244° W

METAR

LFBH 241600Z AUTO 32008KT CAVOK 22/15 Q1015 NOSIG

Decode

TAF

TAF LFBH 241100Z 2412/2512 30010KT CAVOK BECMG 2418/2421 34005KT PROB40 TEMPO 2503/2512 25010KT 3000 SHRA BKN060TCU OVC080 PROB40 2506/2512 BKN005

Decode

Destination Runways

ID Width Length Bearing (true) Bearing (mag) Surface Threshold Offset Overrun Length
10 148 ft / 45 m 7,383 ft / 2,250 m 92.43° 92.67° Asphalt 1,033 ft / 315 m 0 ft / 0 m
28 148 ft / 45 m 7,383 ft / 2,250 m 272.45° 272.69° Asphalt 1,532 ft / 467 m 0 ft / 0 m

Approach Navaids

Runway Type Ident Frequency Range Bearing (true) Bearing (mag) Slope Elevation
28 Localiser RL 109.55 MHz 18 nm / 33 km 272.43° 272.68° - 72 ft / 22 m (AMSL)
28 Glidescope RL 109.55 MHz 10 nm / 19 km 272.44° 272.68° 3.10° 108 ft / 33 m (AMSL)
28 DME RL 109.55 MHz 18 nm / 33 km - - - 66 ft / 20 m (AMSL)